Wind_Speed
16 16 16 16 15 15 15 16 16 15 14 15 15 13 13 13 12 13 13 13 14 14 14 15 16 17 17 18 18 17 17 18 18 18 18 19 18 18 18 18 18 18 17 17
17 16 15 15 16 16 16 17 16 16 16 17 16 14 14 13 13 13 14 15 15 15 16 16 17 18 17 18 19 18 17 18 19 19 19 18 18 17 18 18 18 18 17 17
15 14 15 15 15 15 16 17 16 16 17 18 18 16 14 14 14 14 15 16 17 17 17 18 18 18 18 18 18 18 17 18 19 19 18 18 18 18 18 17 17 17 17 17
15 15 15 16 15 15 14 15 16 17 18 18 17 16 15 15 15 16 17 18 18 18 19 19 19 18 17 17 17 17 18 19 19 19 17 17 18 18 17 17 17 17 17 17
15 15 16 16 15 15 14 15 16 17 18 17 17 18 16 14 15 16 17 18 18 18 18 18 18 18 17 18 18 18 19 20 19 18 17 16 17 17 16 16 16 17 17 17
15 16 16 15 15 15 15 16 17 18 18 17 16 17 15 15 15 17 17 18 18 17 17 17 17 17 17 17 18 18 19 20 19 18 17 16 17 17 16 16 15 16 16 17
15 16 16 16 17 17 17 17 18 19 19 18 17 17 16 16 16 17 18 18 18 17 17 16 16 17 17 18 18 19 19 19 19 18 17 16 16 16 16 16 16 16 16 16
16 17 16 16 17 17 17 17 17 17 17 16 16 17 16 16 17 17 17 18 18 17 16 16 16 17 18 18 18 18 18 18 17 17 16 16 15 14 14 15 15 16 15 15
16 16 16 16 17 17 16 16 16 17 17 17 17 16 16 16 17 17 17 17 16 16 16 16 17 18 18 19 18 17 17 15 14 14 14 14 14 14 14 14 14 14 14 14
15 14 15 16 17 17 17 16 16 16 18 18 18 16 17 16 17 17 17 16 16 15 16 16 17 18 18 18 16 15 15 14 14 14 14 14 14 14 13 13 14 14 15 15
16 16 16 16 18 18 17 16 17 18 19 19 19 17 17 17 17 16 16 16 16 16 16 17 17 17 16 16 16 15 14 14 14 14 13 13 13 13 13 13 14 14 14 14
17 16 16 16 16 16 16 16 17 18 19 19 19 18 17 16 16 16 17 17 17 16 16 16 16 16 16 16 16 14 13 13 13 13 14 13 13 14 14 14 14 14 14 14
16 16 16 16 16 17 17 17 18 18 19 19 20 18 17 17 17 16 16 16 17 16 16 17 17 17 17 16 15 15 14 14 14 14 13 13 14 14 14 14 14 14 14 13
19 18 17 17 16 17 18 18 20 21 22 21 20 18 17 17 17 17 17 17 17 17 17 17 17 17 17 16 15 15 14 14 14 14 14 14 14 14 14 14 15 14 14 13
20 19 18 18 19 19 20 21 21 22 22 22 21 20 19 19 18 18 18 18 17 17 17 17 17 17 16 16 15 15 15 15 15 15 15 15 15 15 15 15 15 14 14 14
21 21 20 21 21 21 21 22 22 22 22 21 21 20 19 19 19 18 18 18 18 17 16 16 16 16 16 15 14 15 15 15 15 15 15 15 15 15 15 15 15 14 14 14
22 22 23 23 23 23 22 22 22 22 22 22 22 20 19 20 19 19 19 18 18 18 17 17 17 17 16 16 16 16 17 15 15 16 16 16 15 15 15 15 15 15 15 15
25 25 25 25 25 26 23 23 23 24 23 22 22 21 21 20 20 19 19 18 18 17 17 17 18 17 16 16 17 17 17 17 16 16 16 16 16 15 15 15 15 15 15 15
25 26 26 26 26 27 25 24 24 24 23 22 22 21 21 20 20 18 18 17 17 16 17 17 17 17 17 17 17 18 18 17 17 16 17 17 17 16 16 15 15 16 16 16
27 26 26 26 26 26 24 23 23 23 23 21 21 21 20 20 19 18 18 17 16 17 17 18 18 18 18 19 19 19 18 17 17 17 17 17 17 17 16 16 16 17 17 17
27 27 26 26 25 24 23 22 22 23 22 22 22 22 21 21 20 19 18 18 17 17 18 18 19 19 19 19 19 18 18 18 18 18 18 17 17 17 17 17 17 17 17 17
28 27 27 26 26 25 24 24 24 23 23 22 22 22 22 21 21 19 18 18 18 18 18 19 19 20 20 20 20 19 19 19 19 18 18 18 18 18 17 17 18 18 18 18
29 28 27 27 27 26 26 26 25 25 24 23 23 23 23 22 22 21 20 20 20 20 20 20 20 21 21 21 21 20 20 20 20 19 19 18 18 18 18 18 18 19 19 19
28 28 28 29 28 27 27 27 26 26 26 25 24 24 24 24 23 22 21 21 21 21 22 21 22 22 22 22 21 21 21 21 21 20 20 19 19 19 19 19 19 19 20 20
28 28 29 29 29 28 28 28 28 27 26 26 25 25 26 25 24 23 22 23 23 23 23 22 22 22 22 22 22 22 22 21 21 20 20 20 20 20 20 20 19 20 20 21
29 29 28 28 28 28 28 28 28 28 28 27 27 27 26 25 25 25 25 24 24 24 23 23 23 23 23 23 24 24 24 23 22 21 22 21 21 21 20 20 20 21 21 21
Wind_Direction
228 230 231 235 239 242 244 246 249 252 253 255 261 267 267 265 270 274 279 284 290 291 290 292 292 296 293 295 297 297 298 298 300 301 301 303 300 296 294 293 290 290 289 285
228 231 236 240 240 240 244 249 252 254 256 260 264 269 272 269 268 273 279 284 288 289 288 291 294 298 295 293 293 294 297 299 300 301 299 300 297 294 290 290 290 290 287 284
229 233 236 241 243 242 243 249 254 257 259 265 269 270 273 273 273 277 282 283 285 288 289 292 297 297 295 293 293 294 296 298 299 300 299 299 297 294 290 289 290 291 289 285
229 230 236 241 243 247 249 251 255 259 262 268 273 271 272 276 276 278 283 285 286 288 290 291 296 296 293 293 295 298 298 297 298 299 298 295 296 295 292 289 288 286 286 286
232 231 236 242 245 249 253 254 258 262 267 270 272 274 274 277 279 282 285 288 287 289 292 294 298 297 296 296 298 299 301 298 296 297 297 296 296 295 294 293 289 288 286 285
237 238 240 243 245 249 251 256 260 263 267 271 275 277 277 282 285 285 287 288 287 289 291 294 298 300 299 297 299 299 297 300 297 297 297 296 295 294 294 293 294 293 289 284
240 240 242 243 245 247 251 255 263 265 268 275 277 276 281 284 285 286 287 288 289 290 291 292 298 301 299 298 297 300 300 300 297 297 297 295 298 298 297 295 296 294 292 287
240 238 242 243 245 249 251 257 265 271 274 278 279 282 287 285 284 287 288 288 289 290 291 293 298 301 302 300 302 304 304 302 299 297 296 294 297 298 299 300 298 295 291 289
243 241 244 247 247 251 254 260 265 271 275 277 281 286 289 287 287 288 290 289 287 288 291 295 296 299 301 301 302 304 304 304 303 302 297 294 294 297 299 302 300 297 296 296
244 246 246 250 251 252 255 261 266 272 280 282 286 289 294 296 291 290 292 291 290 291 295 298 298 299 301 302 302 303 304 306 304 303 299 297 295 296 299 303 300 301 301 298
244 250 249 252 254 256 256 259 265 272 278 283 286 289 296 296 294 292 293 292 292 295 298 300 299 299 301 302 303 302 304 306 305 305 302 299 298 297 300 304 304 303 301 299
244 248 249 249 250 251 256 261 267 272 278 282 285 288 294 296 294 291 292 292 291 295 300 301 300 299 303 303 302 302 308 311 309 306 303 304 302 301 300 301 302 302 299 298
246 247 248 247 248 251 255 261 267 272 277 281 285 291 292 292 292 290 289 290 290 291 295 299 302 303 305 306 306 306 308 309 308 305 303 303 302 302 301 301 301 300 297 296
249 251 251 251 254 259 261 263 266 272 277 281 285 288 289 291 291 290 289 288 290 290 293 298 301 304 305 305 305 306 307 307 307 307 304 301 300 301 302 301 302 302 298 295
251 252 252 254 256 260 263 264 266 271 275 279 285 286 287 289 290 288 289 287 288 290 293 298 303 303 302 301 301 303 303 304 304 305 303 300 301 299 300 300 300 300 299 296
253 257 258 259 260 261 262 264 268 272 275 278 283 284 286 286 286 288 290 289 287 290 292 295 301 301 300 299 298 298 300 301 302 302 301 301 302 300 299 301 301 299 298 296
254 257 260 261 261 261 263 266 269 272 274 278 280 282 283 283 283 286 287 287 287 286 288 292 296 296 296 297 297 297 299 298 299 301 301 301 302 301 299 298 298 298 297 296
256 258 260 263 262 262 265 267 269 271 273 274 276 277 279 282 283 285 285 283 283 281 282 289 291 292 292 295 296 297 297 298 298 300 301 300 299 300 299 300 297 297 296 295
255 258 260 263 264 266 265 266 269 271 270 271 274 277 279 281 281 282 284 283 281 281 284 288 290 291 291 293 294 295 295 295 296 298 300 299 297 298 298 298 296 295 295 294
256 258 261 264 266 266 266 266 268 270 270 271 274 276 278 280 278 280 280 282 281 282 284 287 290 291 291 293 294 294 292 292 294 296 298 298 295 296 297 297 297 295 293 293
256 257 259 262 263 264 266 268 269 271 272 272 273 274 276 277 278 279 279 280 279 281 284 286 287 289 290 293 294 291 290 291 293 294 296 296 294 294 294 295 295 294 293 293
256 257 258 259 260 263 266 269 270 270 270 272 274 274 277 278 277 278 279 280 280 279 281 284 284 286 289 291 292 290 287 287 290 293 293 293 294 294 293 293 293 294 293 293
253 256 258 259 261 264 265 267 267 268 269 271 273 275 277 278 277 278 279 280 280 280 281 284 285 284 286 289 290 289 287 287 289 292 291 292 292 291 292 292 294 294 294 292
254 255 258 259 261 263 264 264 265 267 268 269 272 273 275 276 276 275 275 278 279 279 279 282 282 282 282 284 285 286 286 287 288 289 290 290 291 290 290 291 293 295 296 294
256 258 259 261 262 263 263 263 264 265 266 267 269 272 274 275 276 275 275 276 276 277 279 281 281 281 280 281 283 283 284 286 286 286 287 287 287 287 289 290 291 293 295 296
257 258 260 261 262 261 261 261 261 264 265 266 268 270 271 272 274 273 274 275 276 277 278 280 282 282 281 281 284 284 286 285 283 283 283 284 286 287 289 291 290 292 294 295
Height
5826 5830 5831 5833 5835 5836 5836 5837 5838 5840 5840 5840 5841 5842 5842 5842 5842 5842 5841 5841 5840 5839 5838 5837 5836 5834 5833 5832 5830 5829 5828 5826 5824 5822 5820 5818 5816 5814 5813 5811 5809 5808 5807 5806
5825 5827 5830 5831 5832 5833 5833 5834 5835 5837 5837 5837 5838 5839 5839 5839 5838 5839 5838 5838 5837 5836 5835 5833 5832 5830 5828 5827 5826 5824 5822 5821 5819 5817 5816 5814 5812 5810 5809 5807 5805 5803 5802 5801
5823 5827 5827 5828 5829 5830 5831 5832 5833 5834 5834 5834 5835 5835 5836 5835 5835 5835 5835 5834 5833 5832 5831 5829 5827 5826 5824 5822 5821 5819 5818 5816 5814 5813 5811 5809 5808 5806 5804 5803 5801 5799 5798 5797
5821 5824 5824 5825 5827 5827 5828 5829 5830 5830 5831 5831 5832 5831 5833 5832 5831 5831 5830 5829 5828 5827 5826 5824 5823 5821 5820 5818 5816 5815 5813 5812 5810 5808 5806 5805 5803 5802 5800 5798 5796 5795 5794 5793
5819 5820 5821 5823 5825 5825 5826 5826 5826 5827 5827 5827 5827 5827 5829 5828 5827 5827 5826 5825 5824 5823 5822 5820 5819 5817 5816 5814 5812 5810 5808 5807 5805 5803 5802 5800 5799 5797 5796 5793 5792 5790 5789 5789
5816 5817 5818 5820 5821 5822 5823 5823 5823 5823 5823 5824 5824 5824 5824 5824 5824 5823 5822 5821 5820 5819 5817 5816 5815 5813 5811 5809 5808 5806 5804 5802 5800 5799 5797 5796 5794 5793 5791 5790 5788 5786 5785 5784
5812 5814 5815 5817 5818 5819 5820 5821 5821 5820 5820 5821 5821 5820 5821 5821 5820 5819 5818 5817 5816 5815 5814 5812 5811 5809 5808 5805 5804 5802 5799 5797 5795 5794 5793 5791 5790 5788 5787 5785 5784 5782 5781 5780
5808 5810 5811 5813 5814 5815 5816 5818 5818 5817 5817 5818 5817 5816 5818 5817 5816 5815 5814 5813 5812 5811 5810 5809 5807 5806 5804 5802 5800 5798 5795 5793 5791 5789 5788 5787 5785 5784 5783 5781 5779 5778 5777 5777
5805 5807 5809 5810 5811 5812 5813 5814 5815 5815 5814 5814 5814 5814 5814 5813 5812 5812 5811 5810 5808 5808 5806 5805 5804 5802 5800 5798 5796 5794 5791 5789 5787 5785 5784 5783 5781 5781 5779 5777 5776 5775 5774 5773
5802 5804 5806 5807 5808 5809 5810 5811 5811 5811 5810 5810 5810 5811 5811 5810 5809 5808 5807 5806 5805 5804 5803 5801 5800 5798 5796 5794 5792 5790 5788 5786 5784 5782 5781 5779 5778 5777 5776 5774 5773 5772 5770 5769
5799 5801 5802 5803 5804 5805 5806 5807 5807 5807 5807 5807 5806 5809 5808 5807 5805 5804 5803 5803 5802 5800 5799 5797 5796 5794 5792 5790 5788 5786 5785 5783 5781 5779 5778 5776 5775 5774 5773 5771 5770 5769 5767 5766
5796 5798 5799 5800 5801 5802 5803 5803 5804 5804 5804 5803 5803 5807 5804 5803 5802 5801 5800 5799 5798 5797 5795 5794 5792 5790 5788 5786 5784 5783 5781 5779 5778 5777 5775 5774 5772 5771 5770 5768 5767 5766 5764 5763
5792 5794 5795 5796 5799 5799 5799 5799 5800 5800 5800 5799 5799 5803 5800 5799 5798 5797 5796 5795 5794 5793 5791 5790 5788 5786 5784 5783 5781 5779 5777 5776 5775 5773 5772 5771 5769 5768 5766 5765 5763 5762 5761 5760
5789 5790 5792 5793 5793 5794 5795 5795 5796 5796 5796 5796 5796 5796 5796 5795 5794 5793 5792 5791 5790 5788 5787 5786 5784 5783 5781 5779 5777 5776 5774 5773 5771 5770 5768 5767 5766 5764 5763 5761 5760 5758 5757 5756
5784 5785 5787 5788 5789 5790 5790 5791 5791 5791 5791 5791 5792 5791 5792 5791 5790 5789 5788 5786 5786 5784 5783 5782 5781 5779 5777 5775 5774 5772 5771 5769 5768 5766 5765 5764 5762 5761 5759 5758 5756 5755 5753 5752
5779 5780 5782 5783 5784 5785 5785 5786 5787 5787 5787 5787 5786 5787 5787 5785 5785 5784 5783 5782 5781 5780 5779 5778 5776 5775 5773 5771 5770 5768 5767 5765 5764 5763 5761 5760 5758 5757 5755 5754 5752 5751 5749 5748
5774 5775 5776 5778 5778 5779 5780 5781 5781 5781 5782 5782 5781 5782 5781 5781 5780 5779 5778 5777 5776 5775 5774 5773 5772 5770 5769 5768 5766 5764 5762 5761 5760 5759 5757 5756 5754 5752 5751 5749 5748 5747 5746 5744
5768 5769 5770 5771 5773 5773 5777 5775 5775 5775 5776 5776 5776 5776 5776 5775 5774 5773 5773 5772 5771 5770 5770 5769 5767 5766 5765 5763 5762 5760 5758 5757 5756 5754 5753 5752 5750 5748 5747 5745 5744 5743 5741 5740
5762 5763 5764 5765 5765 5767 5769 5769 5769 5769 5770 5770 5770 5770 5770 5769 5769 5768 5767 5766 5766 5765 5764 5764 5763 5761 5760 5759 5757 5755 5754 5753 5751 5750 5748 5747 5745 5744 5742 5741 5740 5738 5737 5736
5755 5756 5758 5758 5759 5760 5763 5763 5762 5763 5763 5764 5764 5764 5764 5764 5764 5764 5762 5761 5760 5760 5759 5758 5757 5756 5755 5754 5752 5751 5749 5748 5747 5745 5744 5742 5741 5739 5738 5737 5735 5734 5733 5731
5748 5749 5750 5751 5752 5753 5755 5756 5756 5758 5759 5758 5758 5758 5758 5758 5759 5758 5757 5756 5755 5755 5754 5753 5752 5751 5750 5748 5747 5746 5744 5743 5742 5740 5738 5737 5736 5734 5733 5732 5731 5729 5728 5726
5740 5742 5743 5744 5745 5749 5748 5749 5750 5751 5751 5751 5752 5752 5752 5752 5752 5751 5751 5751 5750 5749 5749 5748 5747 5745 5744 5743 5742 5740 5739 5737 5735 5734 5733 5732 5731 5729 5728 5727 5725 5724 5722 5721
5732 5734 5736 5738 5740 5740 5741 5742 5742 5743 5744 5745 5746 5746 5746 5745 5745 5745 5745 5744 5744 5743 5743 5742 5741 5739 5738 5737 5736 5735 5733 5731 5730 5729 5727 5726 5725 5724 5723 5721 5720 5719 5717 5715
5724 5726 5728 5729 5731 5732 5733 5734 5735 5736 5737 5738 5739 5739 5739 5739 5739 5738 5738 5738 5737 5737 5736 5735 5734 5733 5732 5731 5730 5729 5727 5725 5724 5723 5722 5720 5719 5718 5717 5716 5714 5713 5711 5710
5716 5718 5719 5721 5722 5724 5725 5726 5727 5728 5729 5730 5731 5731 5731 5731 5731 5731 5731 5731 5730 5730 5729 5728 5727 5726 5725 5724 5723 5722 5721 5719 5718 5717 5716 5714 5713 5712 5711 5710 5708 5707 5705 5703
5708 5710 5712 5713 5714 5716 5717 5718 5719 5720 5721 5722 5723 5723 5723 5724 5724 5724 5724 5723 5723 5722 5722 5721 5720 5719 5718 5717 5716 5715 5714 5713 5712 5711 5710 5709 5707 5706 5705 5704 5702 5700 5699 5697